www.pogodaiklimat.ru

Погода и климат >> Архив погоды >> Пакистан >> Ханпур


ПОГОДА в Ханпуре

  • Прогноз погоды в Ханпуре
  • Монитор погоды в Ханпуре

АРХИВ ПОГОДЫ в Ханпуре

Время (UTC), дата Ветер
(напр.,м/с)
 
Видим.   Явления Облачность Т
(С)
Тd
(С)
f
(%)
Тe
(С)
Тes
(С)
Комфортность P
(гПа)
Po
(гПа)
Тmin
(С)
Tmax
(С)
R
(мм)
R24
(мм)
S
(см)
21 17.05 штиль 0 4000 м дым ясно +26.0 +20.7 73 +33 +33 очень
душно
1005.0 1000.0
00 18.05 штиль 0 4000 м дым ясно +24.0 +18.5 71 +28 +28 душно 1005.4 995.3
03 18.05 штиль 0 4000 м дым ясно +26.0 +19.9 69 +32 +40 очень
душно
1007.8 997.7 +23.1
06 18.05 штиль 0 4000 м дым ясно +33.0 +21.3 50 +41 +67 опасность
перегрева
1008.4 998.5
09 18.05 штиль 0 4000 м мгла 6/0
[Ac trans]
+35.0 +20.2 42 +41 +57 опасность
перегрева
1005.5 1000.0
12 18.05 штиль 0 4000 м мгла ясно +37.0 +21.0 40 +44 +50 опасность
перегрева
1003.7 994.1 +37.5
15 18.05 штиль 0 4000 м дым ясно +34.0 +22.5 51 +43 +43 опасность
перегрева
1004.2 1000.0
18 18.05 штиль 0 4000 м дым ясно +30.0 +21.9 62 +39 +39 очень
душно
1006.1 996.1
21 18.05 штиль 0 4000 м дым ясно +27.0 +20.2 66 +33 +33 очень
душно
1005.2 1000.0
00 19.05 штиль 0 4000 м дым ясно +26.0 +20.7 73 +33 +33 очень
душно
1004.0 994.0
03 19.05 штиль 0 4000 м дым ясно +29.0 +21.6 64 +37 +45 очень
душно
1005.6 995.6 +25.5
06 19.05 штиль 0 4000 м мгла ясно +35.0 +22.0 47 +44 +70 опасность
перегрева
1006.7 996.9
09 19.05 штиль 0 4000 м мгла 6/0
[Ac trans]
+40.0 +17.3 27 +43 +59 опасность
перегрева
1004.4 1000.0
12 19.05 штиль 0 4000 м мгла 3/3 1200 м
[Sc]
+39.0 +17.9 29 +42 +46 опасность
перегрева
1002.1 992.6 +40.2
15 19.05 штиль 0 4000 м мгла 3/3 1200 м
[Sc]
+36.0 +20.6 41 +43 +43 опасность
перегрева
1003.4 1000.0
18 19.05 штиль 0 4000 м дым ясно +32.0 +20.9 52 +39 +39 очень
душно
1004.8 995.0
21 19.05 штиль 0 4000 м дым ясно +29.0 +19.9 58 +35 +35 очень
душно
1003.7 1000.0
00 20.05 С 2 4000 м дым 3/0
[Ac trans]
+26.5 +18.8 63 +32 +32 очень
душно
1004.3 994.3
03 20.05 С 8 2000 м пыльный позёмок ясно +27.0 +19.3 63 +33 +34 очень
душно
1007.8 997.7 +26.0
06 20.05 СВ 4 2000 м пыльный позёмок ясно +32.0 +18.2 44 +37 +50 очень
душно
1008.5 998.6
09 20.05 СВ 4 2000 м пыльный позёмок ясно +36.0 +19.7 39 +42 +55 опасность
перегрева
1006.7 1000.0
12 20.05 СВ 4 4000 м мгла ясно +37.0 +19.1 35 +42 +44 опасность
перегрева
1004.2 994.6 +38.0
15 20.05 штиль 0 4000 м дым ясно +33.0 +21.3 50 +41 +41 опасность
перегрева
1004.5 1000.0
18 20.05 штиль 0 4000 м дым ясно +30.0 +20.3 56 +37 +37 очень
душно
1007.0 997.0
21 20.05 штиль 0 4000 м дым ясно +28.0 +20.5 64 +35 +35 очень
душно
1006.1 1000.0
00 21.05 штиль 0 4000 м дым ясно +27.0 +21.0 70 +34 +34 очень
душно
1004.9 994.9
03 21.05 штиль 0 4000 м дым ясно +29.0 +21.6 64 +37 +45 очень
душно
1006.7 996.7 +26.5
06 21.05 штиль 0 4000 м мгла ясно +37.0 +21.0 40 +44 +71 опасность
перегрева
1007.2 997.5
09 21.05 штиль 0 4000 м мгла ясно +40.0 +19.3 30 +44 +69 опасность
перегрева
1004.8 1000.0
12 21.05 штиль 0 4000 м мгла ясно +41.0 +19.8 30 +46 +52 опасность
перегрева
1002.5 992.9 +41.5
15 21.05 СВ 3 4000 м мгла 6/0
[Ac trans]
+34.0 +19.9 44 +40 +40 очень
душно
1002.7 1000.0
18 21.05 СВ 5 4000 м зарница 9/9 1050 м
[]
+32.0 +16.2 39 +35 +35 очень
душно
1005.1 995.2
21 21.05 ЮЗ 1 4000 м мгла 10/4 1200 м
[Sc Ac trans]
+31.0 +16.9 43 +35 +35 очень
душно
1004.0 1000.0
00 22.05 штиль 0 4000 м дым ясно +27.0 +19.3 63 +33 +33 очень
душно
1004.2 994.1
03 22.05 штиль 0 4000 м дым 4/0
[Ac trans]
+30.0 +19.4 53 +36 +42 очень
душно
1006.3 996.3 +25.5
06 22.05 штиль 0 2000 м мгла 4/0
[Ac trans]
+37.5 +20.7 38 +44 +64 опасность
перегрева
1006.2 996.5
09 22.05 З 1 4000 м мгла 4/0
[Ac trans]
+40.5 +19.0 29 +45 +61 опасность
перегрева
1003.2 1000.0
12 22.05 З 1 4000 м мгла 3/0
[Ac trans]
+41.5 +17.7 25 +44 +48 опасность
перегрева
1001.0 991.4 +42.1
15 22.05 штиль 0 4000 м мгла 6/0
[Ac trans]
+36.0 +23.2 48 +46 +46 опасность
перегрева
1000.6 1000.0
18 22.05 СВ 2 4000 м дым 6/0
[Ac trans]
+32.0 +23.4 60 +43 +43 опасность
перегрева
1002.9 993.0
21 22.05 СВ 2 4000 м дым 6/0
[Ac trans]
+29.5 +23.0 68 +39 +39 очень
душно
1002.0 1000.0
00 23.05 ЮЗ 2 4000 м дым 10/4 1200 м
[Sc Ac trans]
+27.0 +22.6 77 +36 +36 очень
душно
1002.8 992.7
03 23.05 ЮЗ 1 4000 м дым 10/4 1200 м
[Sc Ac trans]
+28.0 +22.9 74 +37 +39 очень
душно
1005.6 995.5 +25.5
06 23.05 штиль 0 4000 м дым 10/6 1200 м
[Sc Ac trans]
+30.0 +21.1 59 +38 +42 очень
душно
1005.7 995.7 1
09 23.05 штиль 0 4000 м мгла 9/5 1200 м
[Sc Ac trans]
+35.0 +22.0 47 +44 +51 опасность
перегрева
1002.2 1000.0
12 23.05 СВ 1 4000 м мгла ясно +35.0 +22.0 47 +44 +49 опасность
перегрева
999.6 989.8 +35.5
15 23.05 штиль 0 4000 м мгла ясно +34.0 +20.8 46 +41 +41 опасность
перегрева
1001.2 1000.0
18 23.05 СВ 3 4000 м гроза без осадков 10/8 1050 м
[Cb calv Ac trans]
+27.0 +21.0 70 +34 +34 очень
душно
1003.5 993.4
21 23.05 штиль 0 4000 м дым {гроза} 6/4 1200 м
[Sc Ac trans]
+25.5 +21.0 76 +32 +32 очень
душно
1002.2 992.2 0.0
00 24.05 штиль 0 4000 м дым 3/0
[Ac trans]
+24.5 +20.7 79 +30 +30 очень
душно
1002.1 991.9
03 24.05 штиль 0 4000 м дым 3/0
[Ac trans]
+27.0 +21.0 70 +34 +41 очень
душно
1003.6 993.5 +24.0
06 24.05 штиль 0 4000 м дым ясно +32.0 +20.9 52 +39 +66 опасность
солнечного
удара
1005.7 995.8
09 24.05 штиль 0 4000 м мгла ясно +35.0 +20.2 42 +41 +66 опасность
перегрева
1004.6 1000.0
12 24.05 штиль 0 4000 м мгла ясно +37.0 +19.1 35 +42 +48 опасность
перегрева
1002.7 993.0 +37.5
15 24.05 штиль 0 4000 м дым ясно +33.0 +21.3 50 +41 +41 опасность
перегрева
1002.8 1000.0
18 24.05 штиль 0 4000 м дым ясно +30.0 +22.8 65 +40 +40 очень
душно
1004.8 994.8

 

Местоположение метеостанции Ханпур (Пакистан): широта 28.65 долгота 70.68 высота над уровнем моря 88 м.

В архиве по умолчанию представлена погода в Ханпуре за последнюю неделю. Архивные данные за месяц целиком и за предыдущие месяцы, начиная с января 2011 года, Вы можете получить, выбрав интересующий диапазон дат из раскрывающегося списка и нажав кнопку "Ввод!".


*Определитесь, кто Вы:
робот инопланетянин человек

Внимание! Время в таблицах - всемирное. Для получения местного времени необходимо прибавить поправку, которая равна 5 ч.

Смотрите также архив погоды в соседних городах и на ближайших метеорологических станциях:

Погода в Рахим Яр Хан (Пакистан) (43 км)
Погода в Бахавалпуре (Пакистан) (136 км)
Погода а Бахавалпур аэропорту (Пакистан) (136 км)
Погода в Дера Гази Хан (Пакистан) (156 км)
Погода в Бархане (Пакистан) (166 км)
Погода в Мултане (Пакистан) (187 км)
Погода в Джайсалмере (Раджастхан, Индия) (196 км)
Погода в Кот Адду (Пакистан) (202 км)
Погода в Рохри (Пакистан) (206 км)
Погода в Суккуре (Пакистан) (214 км)

Пояснения к столбцам:

Ветер - указаны скорость ветра в м/с - средняя за 10 мин, порывы в срок и между сроками (в фигурных скобках) и направление, откуда дует ветер: С - северный, СВ - северо-восточный, В - восточный, ЮВ - юго-восточный, Ю - южный, ЮЗ - юго-западный, З - западный, СЗ - северо-западный.
Видимость - горизонтальная дальность видимости в метрах или километрах. При видимости от 1 до 10 км при отсутствии осадков обычно наблюдается дымка, при ухудшении видимости до 1 км и менее - туман. В сухую погоду видимость может ухудшаться дымом, пылью или мглою.
Явления - указаны атмосферные явления, наблюдавшиеся в срок или в последний час перед сроком; фигурными скобками обозначены явления, наблюдавшиеся между сроками (за 1-3 часа до срока); квадратными скобками обозначены град или гололедные отложения с указанием их диаметра в мм.
Облачность - указаны через наклонную черту общая и нижняя облачность в баллах и высота нижней границы облаков в метрах; квадратными скобками обозначены формы облаков: Ci - перистые, Cs - перисто-слоистые, Cc - перисто-кучевые, Ac - высококучевые, As - высокослоистые, Sc - слоисто-кучевые, Ns - слоисто-дождевые, Cu - кучевые, Cb - кучево-дождевые. Подробнее классификацию облаков см. в Атласе облаков (PDF).
T - Температура воздуха - температура, измеренная на высоте 2 м над землей.
Td - Температура точки росы - температура, при понижении до которой содержащийся в воздухе водяной пар достигнет насыщения.
f - Относительная влажность воздуха - влажноcть воздуха, измеренная на высоте 2 м над землей.
Te - Эффективная температура - температура, которую ощущает одетый по сезону человек в тени. Характеристика душности погоды. При расчете учитывается влияние влажности воздуха и скорости ветра на теплоощущения человека.
Tes - Эффективная температура на солнце - температура, которую ощущает человек, с поправкой на солнечный нагрев. Характеристика знойности погоды. Зависит от высоты солнца над горизонтом, облачности и скорости ветра. Ночью, в пасмурную погоду, а также при ветре 12 м/с и более поправка равна нулю.
P - Атмосферное давление - приведенное к уровню моря атмосферное давление.
Po - Атмосферное давление - измеренное на уровне метеостанции атмосферное давление.
Tmin - Минимальная температура - минимум температуры воздуха на высоте 2 м над землей.
Tmax - Максимальная температура - максимум температуры воздуха на высоте 2 м над землей.
R - Количество осадков - Количество выпавших осадков за период времени, мм. При наведении курсора мыши на число - период времени, за который выпало указанное количество осадков.
R24 - Количество осадков - Количество выпавших осадков за 24 часа, мм.
S - Снежный покров - Высота снежного покрова, см. При наведении курсора мыши на число - состояние снежного покрова и степень покрытия местности в баллах.